Johnstown, PA

9:00 PM EST on January 16, 2017 (GMT -0500)
Johnstown-Cambria County

Weather History for KJST - April, 2012

Change the Weather History Date:

Wednesday, April 4, 2012

  Actual Average Record
Temperature  
Mean Temperature 52 °F 43 °F  
Max Temperature 62 °F 52 °F 86 °F (1921)
Min Temperature 39 °F 34 °F 16 °F (1964)
Degree Days  
Heating Degree Days 14 22  
Month to date heating degree days 91  
Since 1 July heating degree days 5883  
Cooling Degree Days 0 0  
Month to date cooling degree days 0  
Year to date cooling degree days 0  
Growing Degree Days 2 (Base 50)    
Moisture  
Dew Point 30 °F    
Average Humidity 46    
Maximum Humidity 71    
Minimum Humidity 21    
Precipitation  
Precipitation 0.00 in 0.13 in 1.95 in (1987)
Month to date precipitation 0.56  
Year to date precipitation 9.08  
Sea Level Pressure  
Sea Level Pressure 29.77 in    
Wind  
Wind Speed 11 mph (WNW)    
Max Wind Speed 24 mph    
Max Gust Speed 32 mph    
Visibility 10 miles    
Events Rain    
T = Trace of Precipitation, MM = Missing Value Source: NWS Daily Summary

Daily Weather History Graph

Daily Weather History Graph

Search for Another Location

Airport or City:

Trip Planner

Search our weather history database for the weather conditions in past years. The results will help you decide how hot, cold, wet, or windy it might be!

Date:

Astronomy

Apr. 04, 2012 Rise Set
Actual Time 6:53 AM EDT 7:43 PM EDT
Civil Twilight 6:25 AM EDT 8:11 PM EDT
Nautical Twilight 5:53 AM EDT 8:43 PM EDT
Astronomical Twilight 5:19 AM EDT 9:17 PM EDT
Moon 5:34 PM EDT (4/4) 5:14 AM EDT (4/4)
Length of Visible Light 13h 45m
Length of Day
12h 49m
Waxing Gibbous, 93% of the Moon is Illuminated
Apr 4
Waxing Gibbous
Apr 6
Full
Apr 13
Last Quarter
Apr 21
New
Apr 29
First Quarter

Hourly Weather History & Observations

Time (EDT) Temp. Windchill Dew Point Humidity Pressure Visibility Wind Dir Wind Speed Gust Speed Precip Events Conditions
12:54 AM 54.0 °F - 27.0 °F 35% 29.82 in 10.0 mi WNW 8.1 mph - 0.00 in   Overcast
1:24 AM 53.6 °F - 28.4 °F 38% 29.82 in 10.0 mi WNW 9.2 mph - 0.00 in Rain Light Rain
1:54 AM 53.6 °F - 26.6 °F 35% 29.81 in 10.0 mi West 11.5 mph - N/A   Overcast
2:54 AM 54.0 °F - 28.0 °F 37% 29.79 in 10.0 mi WNW 12.7 mph - N/A   Overcast
3:54 AM 52.0 °F - 28.9 °F 41% 29.78 in 10.0 mi NW 13.8 mph - N/A   Overcast
4:54 AM 51.1 °F - 34.0 °F 52% 29.77 in 10.0 mi NNW 11.5 mph - N/A   Overcast
5:41 AM 50.0 °F - 39.2 °F 66% 29.78 in 10.0 mi NW 13.8 mph - N/A   Overcast
5:54 AM 48.2 °F - 39.2 °F 71% 29.77 in 10.0 mi NW 9.2 mph - N/A   Overcast
6:27 AM 48.2 °F - 39.2 °F 71% 29.77 in 10.0 mi NW 10.4 mph - N/A   Mostly Cloudy
6:54 AM 48.0 °F - 39.0 °F 71% 29.77 in 10.0 mi West 5.8 mph - N/A   Mostly Cloudy
7:54 AM 48.0 °F - 39.0 °F 71% 29.80 in 10.0 mi WNW 6.9 mph - N/A   Overcast
8:54 AM 48.0 °F - 35.1 °F 61% 29.81 in 10.0 mi NW 9.2 mph - N/A   Overcast
9:54 AM 48.9 °F - 33.1 °F 54% 29.83 in 10.0 mi West 9.2 mph - N/A   Overcast
10:43 AM 50.0 °F - 35.6 °F 58% 29.82 in 10.0 mi WNW 10.4 mph 18.4 mph N/A   Scattered Clouds
10:54 AM 50.0 °F - 35.6 °F 58% 29.81 in 10.0 mi WNW 6.9 mph - N/A   Partly Cloudy
11:54 AM 54.0 °F - 37.9 °F 55% 29.76 in 10.0 mi NW 15.0 mph 21.9 mph N/A   Scattered Clouds
12:54 PM 55.9 °F - 32.0 °F 40% 29.74 in 10.0 mi West 13.8 mph - N/A   Clear
1:54 PM 60.1 °F - 28.9 °F 31% 29.72 in 10.0 mi WNW 12.7 mph 27.6 mph N/A   Clear
2:54 PM 61.0 °F - 24.1 °F 24% 29.70 in 10.0 mi WNW 16.1 mph 26.5 mph N/A   Clear
3:54 PM 61.0 °F - 19.9 °F 21% 29.70 in 10.0 mi WNW 20.7 mph 28.8 mph N/A   Clear
4:54 PM 59.0 °F - 19.9 °F 22% 29.70 in 10.0 mi WNW 24.2 mph 32.2 mph N/A   Clear
5:54 PM 55.9 °F - 19.9 °F 25% 29.71 in 10.0 mi WNW 20.7 mph 32.2 mph N/A   Clear
6:54 PM 53.1 °F - 19.9 °F 27% 29.74 in 10.0 mi WNW 18.4 mph 27.6 mph N/A   Clear
7:54 PM 50.0 °F - 21.0 °F 32% 29.76 in 10.0 mi WNW 17.3 mph 26.5 mph N/A   Clear
8:54 PM 46.9 °F - 21.9 °F 37% 29.78 in 10.0 mi NNW 16.1 mph 24.2 mph N/A   Clear
9:54 PM 44.1 °F 39.5 °F 26.1 °F 49% 29.80 in 10.0 mi NNW 8.1 mph - N/A   Clear
10:54 PM 42.1 °F 34.9 °F 27.0 °F 55% 29.80 in 10.0 mi NNW 13.8 mph - N/A   Clear
11:54 PM 39.9 °F 36.7 °F 27.0 °F 60% 29.82 in 10.0 mi NW 4.6 mph - N/A   Clear